Location: Morrison Observatory
(41.7012°N, 86.2315°W)
Time: 15:59:42
(UTC-04:00)

Daily predictions for brighter satellites

Satellite Brightness Start Highest point End
(mag) Time Altitude Azimuth Time Altitude Azimuth Time Altitude Azimuth
Cosmos 1844 Rocket 3.0 21:52:18 10° S 21:57:41 47° ESE 22:03:05 10° NE
COSMOS 2406 4.3 21:53:34 10° N 21:58:45 33° ENE 22:03:52 10° ESE
NOAA 11 4.4 21:56:10 10° S 22:01:36 79° WSW 22:07:03 10° NNW
Cosmos 1844 4.2 21:58:48 10° S 22:04:04 41° ESE 22:09:26 10° NE
ATLAS 3B R/B 3.4 22:00:08 10° NNW 22:06:21 40° NE 22:12:27 10° ESE
Cosmos 1238 Rocket 2.3 22:05:18 10° S 22:08:08 50° E 22:11:08 10° NNE
Cosmos 1400 Rocket 4.3 22:05:13 10° SSW 22:09:01 40° WNW 22:12:48 10° N
Cosmos 2285 Rocket 4.0 22:02:49 10° S 22:09:07 76° ESE 22:15:26 10° NNE
Cosmos 2266 Rocket 4.4 22:04:07 10° NNW 22:10:29 71° W 22:16:43 10° S
USA 238 DEB 4.2 22:03:37 10° NNW 22:10:38 56° NE 22:17:40 10° SE
USA 238 4.2 22:03:44 10° NNW 22:10:44 56° NE 22:17:45 10° SE
SPOT 5 4.5 22:06:53 10° ESE 22:10:53 24° ENE 22:14:59 10° NNE
Cosmos 2084 3.1 22:08:33 10° NW 22:12:25 87° NE 22:16:07 11° SE
Lacrosse 5 2.5 22:09:42 10° WSW 22:14:43 63° NW 22:19:45 10° NE
Cosmos 1346 Rocket 3.0 22:11:02 10° N 22:14:59 56° ENE 22:18:58 10° SSE
SAR-Lupe-3 4.5 22:11:34 10° NNE 22:15:10 78° ESE 22:18:44 10° S
Cosmos-2242 3.2 22:12:30 10° N 22:16:52 58° E 22:21:11 10° SSE
Aureole 1 Rocket 4.0 22:18:01 10° SW 22:21:06 41° WNW 22:24:53 10° N
Cosmos 1331 Rocket 4.4 22:16:03 10° N 22:21:06 49° ENE 22:25:39 13° SE
Meteor 1-24 Rocket 3.9 22:16:00 10° S 22:22:01 79° E 22:28:03 10° NNE
Cosmos 494 Rocket 4.1 22:18:03 10° S 22:23:09 54° ESE 22:28:18 10° NNE
H-2A R/B 2.3 22:18:53 10° SSE 22:24:06 63° ENE 22:29:28 10° N
Timation 1 Rocket 4.3 22:19:24 10° SSW 22:25:18 69° ESE 22:31:15 10° NNE
Cosmos 1269 Rocket 4.2 22:21:50 10° SSW 22:27:08 80° WNW 22:32:29 10° NNE
Cosmos 2082 Rocket 4.3 22:24:49 10° NNE 22:27:58 15° NE 22:31:05 10° E
Helios 1A 4.3 22:28:25 13° ESE 22:31:19 27° ENE 22:34:52 10° N
Helios 1B rocket 4.1 22:29:39 10° NE 22:32:17 17° E 22:33:41 14° ESE
Centaur D-1AR AC-36 4.4 22:25:17 10° WSW 22:34:17 16° SW 22:38:21 10° S
Cosmos 1908 3.3 22:31:12 10° N 22:35:03 61° E 22:38:07 15° SSE
Cosmos 1842 Rocket 4.4 22:32:26 10° N 22:36:25 33° ENE 22:39:11 17° SE
ATLAS 2AS CENTAUR R/B 3.2 22:29:50 10° SW 22:37:39 84° NW 22:45:51 10° NE
Cosmos 1340 3.3 22:36:39 10° N 22:40:16 40° ENE 22:42:34 19° SE
Cosmos 1553 Rocket 4.0 22:38:27 10° S 22:44:26 64° E 22:50:26 10° NNE
MetOp-B 4.2 22:43:42 12° S 22:48:45 80° WSW 22:54:08 10° NNW
Cosmos 1437 4.1 22:46:40 10° NNW 22:49:37 36° W 22:52:32 10° SSW
Cosmos 1302 Rocket 4.4 22:44:57 10° N 22:50:06 50° ENE 22:53:36 20° SE
ERS-1 Rocket 3.0 22:46:45 16° SSE 22:50:50 80° ENE 22:55:54 10° N
DMSP B5D2-2 4.1 22:46:39 10° NNE 22:51:50 59° E 22:56:34 12° S
Cosmos 1674 3.0 22:50:55 10° SSW 22:54:41 69° W 22:58:32 10° N
Meteor 2-1 Rocket 4.4 22:52:49 10° N 22:58:47 84° W 23:03:44 15° S
Cosmos 1300 3.5 22:56:24 10° N 22:59:57 35° ENE 23:01:28 25° ESE
Meteor 2-10 4.1 22:55:20 10° N 23:00:48 79° E 23:04:53 19° SSE
Cosmos 2251 Rocket 3.6 22:57:02 10° S 23:02:17 62° ESE 23:07:33 10° NNE
USA 215 4.1 22:58:50 14° S 23:03:55 38° SW 23:09:58 10° WNW
Cosmos 1726 2.2 23:01:12 10° N 23:04:58 79° W 23:07:13 23° S
Terra 2.7 23:02:30 21° ESE 23:05:00 35° ENE 23:09:19 10° N
RESURS DK-1 4.3 23:06:04 14° E 23:06:04 14° E 23:07:45 10° ENE
Resurs 01 Rocket 4.3 23:03:53 10° WSW 23:05:54 13° W 23:07:56 10° WNW
Cosmos 2221 3.3 23:02:23 10° N 23:06:23 36° ENE 23:08:10 25° ESE
Cosmos 921 Rocket 4.1 23:05:56 10° NNW 23:10:11 43° WSW 23:13:35 15° SSW
H-2A R/B 4.2 23:09:34 20° SE 23:11:04 21° SE 23:25:15 10° E
NOSS 2-2 (E) 3.8 23:11:46 30° SSE 23:12:52 37° ESE 23:16:47 10° NE
CENTAUR R/B 4.0 23:05:56 10° NNW 23:13:16 41° NE 23:20:13 14° ESE
OAO 3 Rocket 4.1 23:09:41 10° WSW 23:14:04 32° SSW 23:15:31 27° SSE
NOSS 3-4 (A) 3.4 23:09:04 10° SSW 23:15:05 61° ESE 23:21:22 10° NE
NOSS 3-4 (C) 3.4 23:09:10 10° SSW 23:15:10 60° ESE 23:21:27 10° NE
Meteor 1-29 3.7 23:12:22 10° NNE 23:15:28 32° E 23:15:42 32° ESE
EP 1 4.1 23:16:32 48° SSW 23:17:06 72° SE 23:19:40 10° NE
Cosmos 1461 3.1 23:17:17 10° SSW 23:21:54 81° ESE 23:26:42 10° NE
CZ-2C R/B 3.8 23:19:33 25° SE 23:22:43 49° ENE 23:28:13 10° N
Cosmos 2278 Rocket 2.1 23:19:05 10° SSW 23:24:44 79° ESE 23:30:26 10° NNE
ATLAS 3B CENTAUR R/B 4.1 23:16:58 10° SW 23:31:34 32° S 23:35:02 25° SE
APEX 3.4 23:30:53 10° NW 23:34:03 54° WSW 23:35:06 38° SSW
IGS 5A 3.4 23:33:19 39° SSE 23:34:49 83° ENE 23:39:00 10° N
Meteor 1-21 Rocket 4.4 23:30:00 14° SSW 23:35:07 74° W 23:40:56 10° N
Cosmos 1745 Rocket 4.4 23:33:27 10° NNW 23:39:40 62° W 23:43:58 20° SSW
COSMOS 2406 4.2 23:37:48 10° NW 23:43:05 38° WSW 23:46:26 20° SSW
NOSS 2-2 (D) 3.2 23:42:34 43° S 23:43:40 66° ESE 23:47:54 10° NE
CARTOSAT-1 3.6 23:43:53 39° S 23:45:26 78° WSW 23:49:47 10° NNW
SL-14 R/B 4.0 23:44:52 24° SW 23:46:54 50° W 23:50:45 10° N
SPOT 5 3.8 23:45:39 23° SSW 23:48:34 46° W 23:53:40 10° NNW
